Temp
-1 -1 -1 -1 -1 -1 -1 -2 -1 -2 -0 -1 -1 -1 -0 -0 -1 -1 -2 -3 -2 -3 -3 -4 -5 -5 -5 -4 -4 -4 -4 -4 -4 -4 -4 -3 -3 -3 -3 -3 -3 -3 -3 -4 -4 -4 -3 -3 -3 -3 -3 -3 -3 -3
0 -1 -1 -1 -1 -1 -1 -1 -2 -1 -3 -1 -1 -1 -1 -1 -2 -2 -2 -3 -3 -3 -3 -3 -4 -5 -5 -5 -4 -4 -4 -3 -4 -3 -4 -3 -3 -3 -3 -3 -3 -3 -3 -3 -3 -3 -3 -3 -3 -3 -3 -3 -4 -4
-0 -0 -1 -1 -1 -1 -1 -1 -1 -1 -1 -2 -2 -2 -2 -2 -2 -3 -3 -3 -3 -3 -3 -3 -3 -4 -5 -5 -5 -4 -4 -4 -4 -4 -4 -4 -4 -3 -4 -3 -3 -3 -3 -3 -3 -3 -3 -3 -3 -4 -4 -4 -4 -4
-0 0 -0 -1 -1 -1 -1 -1 -1 -1 -2 -1 -2 -2 -2 -2 -3 -3 -3 -4 -4 -4 -3 -3 -3 -4 -4 -5 -5 -5 -4 -4 -4 -4 -4 -4 -4 -4 -4 -4 -3 -3 -3 -3 -3 -3 -3 -3 -3 -3 -4 -4 -4 -4
-1 -0 -0 -1 -1 -1 -1 -1 -2 -1 -2 -2 -2 -3 -2 -2 -3 -4 -4 -4 -4 -4 -4 -4 -4 -4 -4 -4 -5 -5 -5 -5 -4 -4 -4 -4 -4 -4 -4 -4 -2 -2 -3 -3 -3 -3 -3 -3 -3 -3 -4 -4 -4 -4
-0 -1 -1 -1 -1 -1 -2 -2 -2 -2 -2 -3 -3 -2 -3 -2 -3 -4 -5 -4 -4 -4 -4 -4 -4 -4 -4 -4 -4 -4 -5 -5 -5 -5 -4 -4 -4 -5 -5 -4 -2 -2 -2 -2 -2 -2 -3 -3 -3 -3 -3 -4 -4 -5
-0 -1 -1 -1 -1 -1 -2 -2 -2 -2 -2 -3 -3 -3 -3 -3 -3 -4 -4 -5 -4 -5 -5 -4 -4 -3 -4 -4 -5 -4 -5 -5 -5 -5 -5 -5 -4 -5 -5 -3 -1 -2 -2 -2 -2 -2 -3 -3 -3 -3 -4 -4 -4 -5
-1 -1 -1 -1 -1 -1 -2 -2 -2 -2 -3 -3 -4 -4 -4 -4 -4 -4 -5 -5 -5 -5 -5 -5 -4 -3 -4 -4 -5 -5 -5 -5 -5 -5 -5 -5 -5 -5 -4 -1 -1 -1 -1 -1 -2 -2 -3 -3 -3 -4 -4 -5 -6 -6
-0 -1 -1 -1 -1 -2 -2 -3 -3 -3 -3 -4 -4 -4 -5 -5 -4 -4 -5 -5 -5 -5 -5 -5 -4 -3 -3 -4 -5 -5 -5 -6 -5 -5 -5 -5 -4 -3 -1 -1 -1 -1 -1 -2 -2 -3 -3 -3 -4 -4 -5 -6 -6 -7
-1 -1 -2 -2 -2 -2 -2 -3 -3 -3 -3 -4 -5 -5 -5 -6 -6 -5 -5 -6 -5 -5 -6 -4 -4 -4 -4 -4 -5 -6 -5 -5 -5 -4 -4 -4 -2 -1 -1 -1 -1 -1 -2 -3 -3 -3 -3 -4 -5 -5 -6 -6 -7 -8
-1 -2 -2 -2 -2 -2 -3 -3 -4 -4 -4 -5 -5 -6 -6 -6 -7 -6 -6 -6 -6 -6 -5 -4 -4 -4 -4 -4 -5 -5 -5 -5 -5 -4 -4 -3 0 1 1 0 -1 -1 -2 -3 -3 -3 -4 -5 -5 -6 -6 -7 -8 -9
-2 -2 -2 -2 -2 -3 -3 -3 -4 -5 -5 -5 -7 -7 -7 -7 -7 -6 -6 -6 -5 -5 -4 -4 -4 -4 -4 -5 -6 -5 -5 -4 -4 -4 -4 -2 1 1 0 -0 -1 -2 -2 -3 -3 -4 -5 -5 -6 -6 -7 -8 -9 -10
-3 -3 -3 -3 -3 -3 -3 -4 -5 -5 -6 -6 -8 -8 -7 -8 -7 -8 -6 -5 -5 -5 -4 -4 -4 -4 -4 -5 -5 -4 -4 -4 -4 -4 -2 0 0 0 -0 -1 -2 -3 -3 -3 -4 -5 -5 -6 -6 -7 -8 -9 -10 -10
-3 -3 -3 -3 -3 -3 -4 -5 -5 -6 -7 -8 -8 -8 -7 -7 -6 -5 -5 -5 -5 -5 -4 -4 -5 -5 -5 -5 -4 -3 -4 -3 -3 -3 -0 0 0 -0 -1 -2 -3 -3 -3 -4 -4 -5 -5 -6 -7 -8 -9 -10 -10 -10
-4 -3 -3 -3 -4 -4 -5 -5 -5 -7 -8 -10 -8 -7 -6 -6 -6 -5 -5 -6 -6 -6 -5 -5 -6 -6 -5 -5 -4 -3 -3 -3 -2 -0 0 -0 -1 -2 -2 -3 -3 -3 -4 -4 -5 -5 -6 -7 -8 -9 -9 -10 -10 -11
-4 -4 -3 -4 -4 -5 -6 -6 -6 -8 -10 -10 -9 -7 -6 -6 -6 -6 -5 -6 -6 -6 -6 -6 -6 -6 -5 -4 -4 -3 -3 -1 -0 -0 -1 -1 -2 -2 -3 -3 -4 -4 -4 -5 -5 -6 -7 -8 -8 -9 -10 -10 -10 -11
-4 -3 -4 -4 -5 -6 -6 -7 -7 -9 -10 -10 -7 -6 -8 -7 -6 -6 -6 -6 -7 -6 -6 -6 -6 -5 -5 -4 -4 -3 -2 -0 -0 -1 -1 -2 -2 -3 -3 -4 -4 -4 -5 -5 -6 -6 -7 -8 -9 -9 -10 -10 -11 -11
-4 -5 -5 -5 -5 -6 -8 -9 -10 -11 -10 -8 -6 -6 -7 -7 -7 -6 -7 -7 -7 -7 -6 -7 -6 -5 -4 -3 -2 -2 -1 -1 -1 -1 -2 -2 -3 -4 -4 -4 -4 -4 -5 -5 -6 -7 -8 -9 -9 -10 -10 -11 -11 -12
-6 -5 -6 -5 -5 -6 -10 -10 -10 -10 -9 -7 -6 -6 -7 -8 -8 -8 -8 -8 -7 -7 -8 -7 -7 -6 -5 -3 -3 -2 -2 -2 -2 -2 -2 -3 -3 -4 -4 -4 -5 -5 -5 -6 -6 -7 -8 -9 -9 -10 -11 -11 -12 -13
-7 -7 -7 -7 -7 -9 -11 -11 -10 -10 -9 -9 -8 -7 -7 -8 -8 -8 -8 -8 -8 -8 -7 -7 -6 -6 -5 -5 -4 -3 -2 -2 -2 -3 -3 -4 -4 -4 -4 -5 -5 -5 -5 -6 -7 -8 -9 -9 -10 -11 -11 -12 -12 -13
-7 -8 -9 -10 -11 -10 -10 -10 -10 -10 -9 -10 -9 -8 -8 -9 -9 -8 -8 -8 -9 -8 -7 -7 -6 -5 -5 -5 -4 -4 -3 -3 -3 -3 -4 -4 -4 -5 -5 -5 -5 -5 -6 -6 -7 -8 -9 -10 -11 -11 -11 -12 -13 -14
-7 -8 -9 -11 -11 -10 -11 -10 -11 -10 -10 -10 -9 -9 -9 -9 -8 -9 -9 -10 -9 -8 -7 -7 -7 -7 -6 -6 -5 -4 -4 -4 -4 -4 -4 -4 -5 -5 -5 -5 -5 -6 -6 -7 -8 -9 -10 -11 -11 -11 -12 -12 -13 -14
-8 -10 -11 -11 -10 -10 -10 -10 -11 -11 -11 -11 -10 -9 -9 -9 -8 -9 -9 -8 -8 -7 -7 -7 -7 -7 -6 -6 -5 -5 -4 -4 -4 -4 -5 -5 -5 -5 -5 -5 -6 -6 -7 -8 -8 -10 -10 -11 -11 -12 -12 -13 -13 -14
-10 -11 -11 -10 -10 -11 -11 -10 -10 -11 -11 -11 -10 -10 -9 -9 -8 -9 -8 -7 -6 -7 -8 -7 -8 -6 -6 -6 -5 -5 -5 -5 -5 -5 -5 -5 -5 -5 -6 -6 -6 -6 -7 -8 -9 -10 -11 -11 -12 -12 -12 -13 -13 -14
-12 -12 -11 -11 -10 -11 -11 -11 -11 -11 -11 -11 -11 -11 -10 -10 -9 -9 -8 -7 -7 -8 -8 -8 -7 -6 -6 -6 -6 -5 -5 -5 -5 -6 -5 -5 -6 -6 -6 -6 -6 -7 -8 -9 -10 -11 -11 -12 -12 -13 -13 -13 -14 -14
-12 -11 -11 -11 -11 -11 -10 -11 -10 -10 -11 -11 -11 -11 -11 -10 -10 -9 -8 -6 -7 -7 -8 -7 -7 -5 -5 -5 -6 -6 -6 -6 -5 -6 -6 -6 -6 -6 -6 -6 -7 -8 -8 -10 -11 -11 -11 -12 -13 -13 -13 -13 -13 -14
-12 -11 -11 -10 -10 -10 -11 -11 -11 -11 -11 -11 -10 -11 -10 -10 -9 -9 -8 -8 -6 -6 -8 -7 -7 -6 -5 -5 -6 -6 -5 -5 -6 -6 -6 -6 -6 -6 -6 -7 -8 -8 -9 -10 -11 -11 -12 -12 -13 -13 -13 -13 -14 -14
-12 -12 -11 -10 -10 -10 -10 -10 -11 -11 -11 -11 -11 -10 -10 -10 -9 -8 -8 -8 -7 -7 -7 -7 -7 -6 -6 -6 -6 -6 -5 -6 -7 -6 -6 -6 -6 -6 -7 -7 -8 -9 -10 -11 -11 -12 -12 -13 -13 -14 -14 -14 -14 -14
-12 -11 -11 -11 -11 -10 -11 -10 -11 -10 -10 -10 -9 -9 -8 -8 -8 -8 -8 -8 -7 -7 -8 -7 -6 -6 -7 -6 -5 -5 -6 -7 -7 -6 -7 -7 -7 -7 -7 -8 -9 -10 -11 -11 -12 -12 -12 -13 -14 -14 -14 -14 -14 -15
-12 -11 -11 -10 -10 -10 -11 -10 -10 -10 -10 -9 -9 -9 -9 -9 -9 -8 -8 -8 -8 -8 -9 -7 -6 -6 -6 -5 -5 -6 -6 -7 -7 -7 -7 -7 -7 -7 -7 -8 -9 -10 -11 -12 -12 -12 -13 -13 -14 -14 -14 -15 -15 -15
-12 -12 -11 -10 -10 -10 -9 -9 -9 -10 -9 -10 -9 -9 -9 -9 -10 -10 -9 -9 -9 -9 -9 -8 -7 -6 -6 -6 -6 -6 -7 -7 -8 -7 -7 -7 -7 -7 -8 -9 -10 -11 -12 -12 -12 -13 -13 -14 -14 -15 -15 -15 -15 -15
-11 -11 -10 -10 -10 -9 -9 -10 -10 -10 -10 -9 -9 -9 -9 -9 -10 -10 -9 -9 -9 -9 -9 -9 -7 -6 -7 -7 -7 -7 -8 -8 -7 -8 -7 -7 -7 -8 -9 -10 -11 -11 -12 -13 -13 -13 -14 -14 -15 -15 -15 -16 -16 -16
-11 -11 -10 -10 -10 -10 -10 -10 -11 -10 -9 -9 -10 -10 -9 -10 -10 -9 -9 -10 -9 -9 -9 -8 -8 -9 -8 -8 -8 -8 -8 -8 -8 -8 -8 -8 -8 -8 -10 -11 -11 -12 -13 -13 -13 -14 -14 -15 -15 -15 -16 -16 -16 -16
Height
3058 3054 3052 3048 3043 3040 3036 3030 3026 3026 3024 3020 3018 3019 3018 3019 3019 3021 3020 3020 3020 3019 3021 3023 3026 3028 3030 3032 3033 3035 3037 3037 3037 3038 3039 3039 3038 3037 3037 3037 3036 3037 3036 3036 3035 3035 3036 3035 3035 3037 3036 3034 3034 3033
3055 3051 3049 3048 3042 3038 3036 3034 3030 3025 3024 3024 3020 3018 3018 3018 3019 3019 3020 3021 3021 3021 3023 3024 3026 3028 3030 3031 3033 3034 3036 3036 3036 3037 3038 3038 3038 3037 3036 3037 3035 3036 3036 3036 3036 3034 3033 3033 3033 3033 3032 3031 3030 3029
3051 3049 3046 3043 3041 3037 3033 3031 3028 3027 3024 3022 3022 3020 3018 3017 3018 3019 3019 3021 3022 3022 3023 3024 3025 3027 3028 3030 3031 3034 3035 3035 3036 3036 3036 3037 3037 3036 3035 3034 3033 3032 3032 3032 3033 3031 3030 3030 3030 3029 3028 3027 3025 3024
3045 3044 3043 3041 3038 3035 3032 3028 3026 3024 3023 3021 3020 3021 3018 3017 3018 3018 3018 3020 3021 3022 3022 3023 3023 3025 3027 3028 3029 3030 3032 3033 3035 3035 3034 3034 3035 3034 3032 3032 3031 3031 3030 3029 3028 3028 3027 3026 3026 3025 3024 3022 3020 3018
3040 3038 3037 3036 3036 3033 3029 3026 3024 3023 3021 3021 3019 3018 3017 3016 3016 3017 3018 3019 3020 3023 3022 3021 3021 3022 3023 3025 3027 3028 3029 3030 3031 3033 3033 3033 3032 3031 3029 3027 3024 3025 3025 3025 3024 3023 3023 3023 3022 3020 3019 3016 3014 3012
3034 3032 3032 3031 3031 3029 3027 3024 3022 3020 3017 3016 3017 3016 3018 3017 3015 3016 3018 3019 3018 3019 3020 3020 3019 3018 3019 3021 3023 3025 3026 3027 3028 3029 3030 3028 3029 3030 3026 3021 3021 3020 3020 3020 3020 3019 3018 3017 3016 3015 3013 3011 3008 3005
3029 3027 3026 3026 3025 3024 3023 3022 3020 3018 3016 3014 3014 3014 3015 3019 3017 3016 3018 3017 3016 3017 3018 3017 3014 3013 3014 3016 3018 3021 3022 3023 3025 3025 3025 3025 3025 3025 3020 3016 3017 3016 3016 3015 3015 3014 3013 3012 3011 3009 3007 3004 3000 2997
3022 3021 3021 3020 3021 3019 3018 3018 3016 3015 3013 3011 3012 3012 3012 3016 3018 3015 3014 3015 3014 3015 3015 3014 3011 3011 3011 3012 3014 3016 3018 3020 3020 3020 3020 3020 3020 3019 3013 3011 3011 3011 3011 3011 3010 3009 3008 3007 3005 3002 2999 2996 2993 2989
3015 3015 3014 3014 3014 3014 3014 3013 3012 3011 3011 3009 3009 3011 3011 3012 3015 3016 3013 3012 3012 3015 3012 3009 3009 3009 3007 3009 3011 3014 3015 3016 3016 3014 3015 3016 3012 3009 3008 3008 3008 3008 3008 3007 3006 3005 3003 3001 2998 2995 2992 2989 2985 2981
3008 3008 3008 3008 3009 3008 3007 3008 3008 3008 3007 3006 3008 3008 3009 3010 3011 3014 3014 3012 3009 3008 3006 3005 3006 3006 3007 3005 3008 3013 3013 3013 3010 3010 3009 3005 2999 3003 3003 3003 3003 3003 3003 3002 3001 3000 2998 2995 2992 2988 2984 2980 2975 2971
3001 3001 3002 3003 3003 3002 3002 3003 3003 3004 3005 3004 3003 3005 3005 3007 3009 3010 3010 3010 3008 3004 3000 2998 3000 3002 3003 3003 3006 3010 3009 3009 3006 3005 3004 2999 2995 2996 2997 2997 2998 2998 2998 2998 2997 2994 2991 2988 2985 2981 2977 2972 2966 2961
2993 2993 2995 2997 2997 2997 2997 2997 2999 3000 2999 3001 3003 3001 3003 3003 3006 3009 3005 3006 3005 3002 2997 2995 2995 2998 3000 3001 3003 3006 3006 3005 3001 3001 2999 2992 2991 2992 2993 2994 2993 2994 2993 2992 2990 2988 2985 2982 2978 2974 2969 2964 2957 2951
2984 2987 2989 2990 2990 2990 2990 2992 2994 2995 2996 2997 3001 2999 3000 3000 2998 3001 3000 3000 3001 2999 2998 2996 2995 2996 2997 3000 3001 3002 3001 3000 2998 2995 2991 2987 2987 2989 2990 2989 2990 2989 2988 2986 2984 2981 2978 2975 2971 2965 2959 2953 2946 2941
2975 2979 2982 2983 2984 2983 2984 2985 2989 2989 2992 2993 2994 2997 2995 2993 2988 2989 2994 2995 2997 2997 2997 2996 2995 2995 2995 2997 2997 2996 2995 2994 2990 2987 2983 2982 2984 2985 2985 2985 2985 2984 2983 2981 2978 2975 2972 2968 2964 2957 2949 2942 2936 2930
2966 2969 2974 2976 2976 2978 2978 2978 2981 2985 2986 2989 2989 2988 2984 2985 2987 2987 2988 2990 2992 2993 2994 2995 2995 2995 2994 2994 2992 2990 2987 2983 2980 2978 2979 2980 2981 2981 2981 2981 2980 2978 2977 2975 2972 2969 2965 2959 2954 2948 2941 2935 2928 2921
2957 2960 2965 2966 2967 2970 2971 2973 2975 2980 2981 2981 2977 2976 2977 2980 2983 2985 2985 2987 2988 2988 2989 2991 2992 2992 2990 2988 2983 2980 2978 2975 2975 2975 2977 2977 2977 2976 2976 2976 2975 2973 2972 2970 2966 2962 2957 2951 2945 2940 2934 2927 2920 2912
2944 2953 2955 2956 2957 2961 2963 2965 2968 2971 2974 2967 2964 2968 2974 2976 2980 2981 2980 2980 2984 2984 2985 2987 2986 2986 2982 2979 2977 2973 2972 2973 2974 2974 2974 2974 2973 2973 2973 2971 2970 2969 2967 2964 2960 2955 2949 2943 2938 2932 2926 2920 2913 2906
2938 2944 2945 2946 2949 2950 2952 2956 2959 2960 2959 2957 2957 2960 2966 2969 2972 2976 2976 2976 2977 2979 2980 2980 2980 2978 2977 2974 2972 2972 2972 2971 2972 2972 2971 2970 2970 2969 2968 2967 2965 2964 2961 2958 2953 2948 2942 2937 2932 2927 2920 2914 2907 2900
2930 2933 2934 2937 2940 2943 2946 2948 2949 2946 2948 2950 2948 2952 2956 2961 2964 2969 2971 2970 2971 2973 2974 2974 2973 2971 2973 2973 2971 2970 2969 2969 2969 2968 2967 2967 2966 2965 2963 2962 2960 2958 2955 2951 2945 2940 2935 2931 2926 2920 2914 2908 2901 2894
2919 2923 2926 2929 2933 2934 2941 2941 2939 2939 2939 2941 2940 2942 2946 2950 2956 2959 2963 2964 2963 2964 2964 2962 2963 2967 2966 2967 2967 2967 2967 2966 2965 2965 2964 2963 2962 2961 2959 2958 2956 2953 2949 2944 2939 2935 2930 2925 2920 2914 2909 2903 2897 2892
2908 2912 2917 2920 2924 2927 2927 2924 2928 2930 2930 2932 2932 2935 2937 2939 2943 2947 2951 2953 2952 2948 2948 2955 2958 2960 2961 2962 2962 2962 2962 2962 2961 2961 2960 2959 2958 2956 2954 2953 2950 2946 2942 2937 2933 2929 2926 2921 2916 2911 2905 2900 2895 2890
2899 2902 2905 2911 2917 2918 2919 2914 2918 2921 2924 2924 2923 2926 2926 2928 2932 2936 2939 2937 2933 2933 2940 2947 2948 2950 2953 2956 2957 2958 2958 2957 2957 2956 2955 2954 2953 2951 2950 2948 2944 2941 2936 2932 2928 2925 2921 2916 2911 2906 2901 2896 2892 2888
2891 2896 2901 2906 2910 2910 2908 2907 2909 2912 2915 2914 2914 2915 2915 2918 2922 2926 2925 2923 2923 2925 2931 2936 2937 2941 2945 2948 2950 2952 2952 2952 2952 2952 2951 2949 2948 2947 2945 2942 2939 2935 2930 2927 2924 2921 2916 2911 2907 2902 2898 2894 2889 2885
2882 2888 2895 2897 2896 2895 2892 2894 2897 2902 2902 2906 2906 2906 2906 2910 2912 2914 2912 2913 2917 2919 2922 2925 2928 2932 2937 2940 2943 2945 2947 2947 2947 2947 2945 2944 2944 2942 2939 2937 2933 2929 2925 2922 2919 2915 2910 2906 2902 2898 2894 2891 2887 2883
2879 2884 2885 2880 2878 2880 2879 2882 2885 2890 2891 2894 2898 2898 2898 2902 2903 2903 2901 2904 2910 2912 2914 2916 2918 2923 2929 2933 2937 2939 2940 2941 2941 2941 2940 2939 2938 2936 2934 2932 2927 2923 2920 2917 2914 2909 2905 2902 2898 2895 2892 2888 2884 2881
2864 2864 2864 2859 2863 2867 2867 2872 2876 2878 2881 2886 2888 2890 2891 2892 2894 2890 2886 2896 2901 2904 2905 2906 2910 2914 2920 2926 2929 2932 2935 2935 2936 2935 2935 2934 2932 2930 2929 2926 2922 2919 2916 2913 2908 2905 2901 2898 2894 2891 2889 2885 2881 2877
2847 2843 2844 2846 2851 2856 2863 2865 2868 2870 2872 2875 2876 2883 2885 2884 2880 2878 2883 2887 2892 2895 2895 2897 2901 2907 2915 2920 2923 2925 2927 2930 2930 2930 2930 2928 2926 2925 2923 2920 2917 2915 2912 2908 2904 2901 2898 2894 2891 2888 2886 2882 2879 2875
2827 2830 2834 2839 2843 2849 2852 2855 2858 2860 2863 2868 2874 2876 2876 2871 2869 2875 2879 2883 2884 2887 2887 2889 2894 2901 2907 2913 2917 2920 2922 2924 2924 2924 2923 2922 2921 2919 2917 2914 2912 2910 2906 2903 2900 2897 2894 2891 2888 2885 2882 2878 2875 2872
2818 2821 2830 2832 2838 2841 2841 2843 2846 2852 2857 2861 2865 2866 2864 2864 2867 2870 2873 2875 2876 2879 2879 2883 2888 2893 2898 2904 2909 2913 2915 2917 2918 2918 2917 2916 2915 2914 2911 2909 2908 2905 2902 2899 2897 2893 2890 2888 2885 2882 2878 2875 2872 2869
2809 2815 2817 2822 2826 2828 2832 2837 2841 2846 2850 2854 2857 2857 2857 2857 2860 2863 2866 2868 2871 2872 2874 2879 2884 2889 2895 2900 2904 2908 2910 2910 2912 2913 2912 2911 2910 2909 2907 2905 2903 2900 2898 2895 2892 2889 2887 2885 2882 2878 2875 2872 2869 2867
2803 2807 2812 2816 2819 2824 2828 2832 2835 2838 2842 2844 2846 2847 2848 2850 2852 2853 2856 2859 2860 2863 2867 2872 2877 2883 2890 2895 2899 2902 2904 2905 2906 2906 2906 2905 2905 2904 2902 2900 2897 2895 2893 2890 2887 2885 2883 2880 2877 2874 2871 2869 2866 2863
2797 2802 2806 2809 2813 2817 2821 2824 2827 2830 2832 2834 2835 2837 2839 2841 2842 2845 2848 2850 2852 2855 2860 2865 2872 2879 2886 2890 2893 2895 2898 2900 2900 2900 2899 2899 2899 2898 2897 2895 2892 2890 2888 2885 2883 2882 2879 2875 2873 2871 2868 2866 2863 2861
2791 2795 2799 2804 2806 2808 2813 2818 2820 2822 2824 2825 2826 2828 2831 2833 2835 2837 2839 2841 2846 2849 2856 2861 2868 2874 2880 2885 2887 2889 2892 2894 2894 2893 2893 2894 2894 2893 2891 2889 2887 2885 2883 2882 2880 2878 2874 2872 2870 2868 2866 2863 2861 2858
Wind_Speed
25 23 25 25 24 22 22 16 12 14 10 8 10 9 8 10 10 7 10 10 11 10 10 17 17 14 12 9 10 8 7 7 5 3 1 2 1 2 3 4 3 2 1 2 2 2 1 3 2 1 3 6 8 9
23 22 21 23 21 22 20 22 17 10 10 9 2 7 9 8 6 5 5 6 7 8 4 12 16 14 12 11 8 7 6 2 6 3 3 1 3 4 4 3 5 4 5 2 4 3 3 5 6 9 11 11 12 13
23 21 20 19 19 18 20 17 16 14 11 11 10 6 8 9 6 3 2 3 3 3 2 6 11 15 14 12 12 12 10 5 6 7 6 4 4 6 5 6 9 8 9 9 7 4 7 9 11 13 15 16 17 18
23 21 19 19 18 17 16 18 17 15 12 11 14 15 11 10 7 4 5 3 2 1 1 5 8 11 14 15 13 14 13 12 10 8 10 10 10 10 11 10 12 12 11 10 11 10 12 13 13 14 16 18 20 21
22 21 19 19 18 17 17 16 16 19 16 13 12 17 17 12 9 10 6 3 2 2 3 4 8 12 13 15 15 15 14 14 14 15 13 13 13 15 19 21 21 15 17 16 17 13 13 13 14 15 18 20 22 24
23 20 19 19 19 17 16 16 15 17 16 13 12 14 16 13 11 10 8 5 4 4 6 7 9 13 15 16 17 18 17 17 18 17 17 19 17 15 12 13 8 4 5 7 10 11 12 14 16 18 20 22 25 27
23 20 18 18 19 18 16 14 15 16 18 14 12 14 15 17 13 11 7 5 4 6 7 6 9 13 18 19 19 18 18 19 19 20 22 21 19 19 26 29 19 18 15 15 14 14 15 16 18 20 22 25 28 31
24 20 19 18 19 17 17 14 14 16 17 14 11 14 16 20 19 14 12 9 6 7 9 6 8 9 12 18 20 19 18 16 18 20 22 21 20 21 17 7 5 6 8 9 11 13 15 16 19 23 26 28 30 33
25 21 18 18 18 18 17 13 14 15 15 15 12 14 17 20 24 21 15 12 11 11 6 9 10 7 7 16 18 17 15 15 17 21 20 18 23 15 8 8 8 9 10 11 13 14 15 19 23 26 28 30 33 34
25 22 19 18 17 17 17 14 13 14 14 13 11 12 13 17 18 21 19 16 16 18 21 20 14 12 8 8 16 11 10 13 8 12 13 22 31 20 20 19 18 17 17 16 14 15 20 23 25 28 30 33 36 36
25 22 20 18 17 15 16 15 13 12 14 12 11 11 12 15 12 12 11 7 7 7 12 18 23 20 11 10 16 12 6 7 5 8 8 7 9 7 9 11 12 14 14 12 16 20 22 24 27 29 32 34 37 39
26 23 21 18 17 14 16 15 13 12 12 12 10 11 13 13 10 8 6 8 9 7 11 12 14 19 15 12 13 12 9 6 6 7 7 6 7 7 6 6 8 8 11 16 19 21 23 26 29 31 34 36 39 41
26 23 22 19 18 15 16 14 13 13 13 13 9 9 7 9 11 7 8 8 6 9 12 12 12 18 15 16 9 7 7 8 5 7 6 8 6 5 5 7 8 12 14 17 20 22 25 27 31 35 38 39 41 39
27 24 23 21 18 16 17 16 14 15 16 14 10 10 8 9 10 14 16 15 14 16 12 11 12 15 17 16 10 6 9 7 6 7 8 8 6 6 8 10 11 13 16 18 21 24 27 31 33 36 38 39 38 39
28 26 25 21 18 18 19 18 16 17 19 14 10 9 16 17 15 9 8 10 17 17 13 14 14 16 13 10 9 9 7 8 9 10 9 7 5 8 10 11 12 14 17 20 23 26 31 34 35 33 34 36 37 38
29 29 24 22 20 20 21 19 18 20 24 20 20 19 18 14 15 22 19 16 13 14 13 13 11 8 12 9 10 12 7 7 7 9 7 5 7 10 10 11 13 15 19 22 26 30 33 33 32 33 34 35 36 39
32 27 26 24 21 21 21 20 21 26 22 22 33 35 33 19 10 11 18 21 16 14 15 14 9 11 7 10 13 13 19 10 8 7 6 8 10 10 11 12 14 17 20 25 29 31 31 31 33 33 33 34 35 38
30 26 27 25 24 24 24 24 26 28 34 37 33 32 32 34 33 27 22 20 18 15 17 24 21 15 9 8 15 21 17 12 11 9 9 10 11 10 12 13 15 19 23 27 29 29 29 31 31 31 32 34 36 35
25 28 29 27 25 25 27 31 34 30 37 38 36 35 35 31 30 31 31 31 29 20 18 23 24 19 20 22 17 13 10 10 9 10 11 11 10 11 12 14 17 22 26 27 27 28 30 30 30 30 31 33 33 33
29 30 28 26 25 25 26 24 30 37 32 33 34 32 33 34 33 33 32 33 34 29 29 33 32 27 18 14 19 18 14 12 11 11 10 10 11 12 12 16 20 24 26 26 27 28 28 28 28 29 30 31 29 27
35 31 28 26 27 30 32 22 27 30 34 40 36 30 31 30 30 31 32 33 41 49 47 36 31 28 32 25 19 19 16 14 13 12 11 12 11 12 14 19 22 24 25 26 27 27 25 24 25 26 27 27 24 23
34 34 33 34 36 38 37 34 30 35 32 30 24 23 27 28 28 31 32 36 45 48 41 34 29 28 27 26 23 20 18 15 13 13 13 12 11 13 17 20 23 24 25 25 26 24 23 23 24 24 24 24 21 19
33 32 37 40 40 37 32 41 43 41 36 30 30 26 27 25 23 25 33 36 38 33 28 31 25 23 30 27 25 23 19 16 15 14 14 11 13 15 18 21 23 24 24 24 24 21 21 22 22 22 23 22 19 17
35 35 43 33 39 32 37 38 37 44 43 39 28 22 24 21 23 29 35 33 27 23 22 26 23 23 32 27 26 24 21 18 15 15 12 13 14 16 19 21 23 23 24 25 22 20 21 21 20 19 21 21 18 15
37 29 25 43 40 46 42 40 41 43 42 42 37 34 29 27 28 34 39 33 31 30 29 30 29 28 33 28 27 24 21 17 15 14 14 14 15 17 19 22 23 23 24 22 20 20 21 20 19 18 19 19 17 15
37 33 29 28 43 49 52 49 50 45 40 43 40 37 34 31 30 34 41 34 23 23 26 29 27 30 33 28 26 23 19 17 17 15 15 15 15 17 20 21 22 22 22 19 19 19 20 20 19 18 17 18 18 18
35 30 44 49 40 39 44 41 43 41 41 36 37 32 33 27 26 40 36 34 25 22 23 26 28 31 32 30 28 25 18 18 16 15 16 15 15 18 19 20 20 21 19 17 17 18 19 19 19 18 17 16 17 17
40 44 42 39 47 53 42 45 45 43 40 34 30 35 31 31 39 35 26 18 12 19 23 28 30 32 28 29 27 22 21 19 17 15 16 14 16 18 19 19 19 19 17 16 16 17 18 18 18 17 16 17 17 17
43 40 45 45 40 43 50 49 45 41 43 41 39 40 44 40 35 29 26 20 15 22 25 31 33 33 33 33 27 25 21 19 14 15 15 15 16 18 18 18 18 16 15 14 15 16 17 17 17 16 16 17 17 18
44 37 31 43 50 48 43 42 42 40 40 40 37 36 36 35 32 26 24 23 25 26 28 30 35 36 33 28 23 21 21 17 15 21 16 14 15 18 18 17 16 14 14 13 14 16 16 16 15 15 15 16 17 18
45 37 38 37 30 33 36 39 42 40 37 37 39 37 35 33 34 36 30 31 33 29 29 31 37 36 35 28 23 24 17 15 20 19 15 13 15 17 17 15 14 13 13 13 14 16 16 15 16 16 16 17 18 18
37 39 37 36 38 38 37 38 35 34 35 32 33 33 30 29 32 34 36 38 30 26 30 30 35 37 32 29 26 18 14 21 20 16 13 13 15 16 15 13 13 13 13 13 14 16 16 15 15 15 16 17 17 18
39 38 39 36 36 38 38 35 33 33 33 36 35 35 35 34 34 38 41 32 29 22 29 29 36 35 31 26 21 19 20 22 18 14 13 14 15 15 13 11 12 12 12 13 14 16 15 14 14 15 16 17 17 18
Wind_Direction
332 339 347 349 351 355 358 347 359 355 8 83 121 130 109 93 104 75 58 49 47 58 138 162 168 166 166 159 176 186 186 211 213 235 268 281 308 276 282 278 285 280 275 232 217 216 268 207 194 217 255 276 283 286
324 330 343 345 347 345 352 355 334 334 327 321 72 151 148 143 136 87 60 47 42 52 135 170 181 187 189 197 196 194 204 228 215 219 233 280 289 290 294 287 277 262 228 254 233 239 247 258 277 287 286 286 288 288
313 322 332 339 341 341 340 342 346 317 307 297 290 229 210 193 197 161 125 87 52 51 132 187 192 202 204 212 215 218 221 227 226 228 238 261 270 281 281 282 278 279 268 256 284 274 276 280 285 288 289 290 290 289
304 313 322 329 336 334 336 333 333 322 304 288 283 272 241 234 238 185 149 128 83 65 276 215 206 205 214 215 221 216 220 230 239 239 245 252 265 277 275 274 276 275 278 278 280 280 282 285 286 287 288 289 288 289
296 304 314 321 330 332 327 328 323 330 305 296 280 277 262 239 221 184 177 162 152 230 273 273 233 220 217 223 225 222 226 232 240 244 253 263 272 278 277 275 276 278 268 268 277 286 284 289 288 288 290 290 290 291
287 295 305 314 323 326 320 321 324 315 315 292 288 274 272 228 194 201 223 232 223 240 256 269 250 237 232 228 231 234 235 239 242 248 256 263 268 269 272 272 283 279 296 288 284 281 285 288 290 292 292 293 293 293
277 286 296 305 312 319 317 318 315 308 315 291 280 264 242 246 223 207 222 222 238 239 252 273 263 246 229 226 229 235 240 243 246 249 253 260 269 266 269 271 286 276 268 269 275 282 286 289 293 294 293 294 295 295
272 278 287 297 304 312 312 314 308 306 304 295 282 262 238 238 253 224 222 236 254 249 242 249 255 262 234 223 224 229 235 240 245 248 256 260 262 265 269 280 253 250 259 265 273 281 287 292 293 293 295 296 296 298
266 272 280 289 298 307 306 306 302 302 297 299 287 270 247 243 250 254 241 241 256 240 230 236 241 274 248 224 221 224 231 241 253 255 255 260 256 239 251 248 251 262 273 281 286 287 290 293 293 295 297 299 300 302
261 266 272 282 292 301 299 297 297 297 291 301 284 274 265 254 244 250 256 266 267 252 240 244 244 245 261 242 215 214 231 227 251 258 253 251 257 256 253 258 265 272 278 283 281 288 293 294 296 299 302 303 305 308
256 261 267 274 282 289 291 290 290 285 278 284 275 264 255 256 247 246 248 254 249 255 252 249 237 242 243 226 202 201 229 227 238 241 223 249 260 235 239 250 258 263 267 270 285 292 295 298 300 304 306 307 308 309
254 255 260 268 275 280 277 280 281 274 263 269 272 261 254 244 235 233 231 236 243 248 255 250 231 224 226 208 190 211 225 235 239 230 230 243 236 224 239 254 257 252 274 288 293 297 300 303 307 308 309 309 308 309
251 252 255 261 266 269 265 266 267 260 248 250 255 252 249 231 220 223 222 222 237 265 302 281 240 215 212 202 196 205 221 236 229 224 236 234 218 223 251 258 263 285 291 295 299 302 306 309 310 311 312 311 311 315
248 248 250 254 258 257 253 253 255 248 235 227 232 231 220 227 210 223 236 243 255 263 292 285 231 214 209 199 202 220 224 228 230 227 228 205 202 248 251 269 284 292 298 302 306 308 311 312 314 314 314 315 317 318
245 242 244 248 250 249 243 244 245 237 222 211 220 227 233 226 221 231 256 264 259 262 276 274 243 222 217 209 215 221 219 220 223 222 204 188 256 264 275 283 294 303 306 308 310 313 314 316 318 318 317 318 319 319
242 238 239 239 240 239 237 238 239 228 213 216 223 227 239 232 235 238 251 267 282 258 257 248 228 226 221 226 219 216 218 222 229 193 205 256 273 279 285 294 303 308 309 312 315 315 317 320 321 322 322 324 325 324
239 236 232 232 233 234 235 227 230 220 212 225 241 244 235 230 230 245 250 247 263 272 247 218 217 226 238 230 227 231 231 242 220 230 261 278 282 281 288 296 305 309 312 316 317 319 323 324 325 326 329 328 328 328
233 227 229 227 229 226 219 220 217 218 229 236 246 253 250 244 238 247 273 282 243 270 261 230 230 236 239 253 254 249 253 248 242 255 273 279 275 282 290 300 309 314 317 318 320 324 327 328 327 328 330 332 333 336
220 226 225 227 232 225 207 218 222 231 242 247 251 254 254 252 251 249 254 265 260 256 259 252 240 245 258 253 279 289 246 236 254 269 272 273 281 286 296 307 313 317 319 320 326 331 329 328 329 332 335 338 339 342
214 217 220 225 224 208 202 221 232 235 246 252 252 253 259 261 257 254 248 250 258 258 254 244 252 242 244 285 268 251 250 255 262 268 271 278 282 289 302 310 314 319 321 325 330 332 330 330 332 336 338 340 344 350
210 208 210 210 204 213 212 223 227 236 246 248 253 255 258 261 259 260 261 257 254 256 255 255 262 263 245 263 277 246 246 251 257 265 271 276 282 295 307 312 318 321 324 330 332 332 330 331 334 337 339 341 347 355
211 209 203 195 203 213 223 230 236 238 242 251 255 258 260 261 265 264 262 251 248 255 256 257 263 242 244 248 256 244 244 248 258 266 273 276 288 300 308 315 320 322 327 332 332 330 330 333 336 338 340 344 345 354
211 209 191 197 210 217 232 233 236 242 244 253 257 253 252 253 255 258 253 255 259 259 257 250 246 249 233 241 241 238 242 248 256 267 268 283 290 301 311 317 319 323 329 332 330 329 332 335 336 339 342 345 345 349
210 195 192 202 210 217 226 229 231 233 237 239 233 230 246 253 262 256 257 262 258 264 262 242 231 245 225 229 230 232 236 243 254 262 273 280 289 302 313 316 318 326 330 330 330 332 335 336 339 340 341 342 344 345
192 202 206 209 212 221 221 226 230 227 226 229 232 235 240 243 249 259 263 269 261 262 258 258 234 228 220 226 230 231 234 241 253 264 272 278 290 305 312 316 321 328 330 328 330 334 336 337 339 340 339 340 343 340
200 203 210 212 218 219 223 225 229 229 229 232 235 234 233 239 247 252 260 261 265 271 260 241 228 220 215 219 223 227 235 244 255 261 272 279 294 308 313 318 324 326 327 327 332 336 337 338 337 334 335 339 342 340
205 209 219 221 220 224 222 225 226 227 227 226 229 221 229 228 246 257 266 272 267 260 264 219 225 213 212 221 224 225 233 244 253 266 272 282 298 307 312 318 322 324 325 328 332 335 336 337 334 331 331 335 337 336
217 218 223 225 226 225 228 228 224 223 225 225 224 223 231 239 250 258 269 271 261 259 253 203 211 207 211 216 222 225 235 248 250 266 274 285 298 305 312 317 319 321 324 328 330 332 335 335 331 330 333 336 334 330
215 222 223 228 232 230 229 230 231 231 239 238 242 248 256 265 270 275 271 270 255 244 226 202 207 203 204 212 217 227 233 239 256 273 273 284 297 305 310 313 316 320 323 321 323 330 333 332 332 333 335 335 333 332
214 215 220 223 227 229 227 233 240 244 248 250 255 256 258 259 261 258 258 252 248 244 222 215 209 210 212 214 222 229 237 239 277 277 270 282 294 300 305 309 314 319 317 318 324 332 330 327 332 336 336 334 334 334
216 215 224 230 232 233 238 242 240 242 247 252 255 255 256 254 252 253 254 236 261 233 223 218 208 202 212 218 224 232 239 264 268 259 263 277 289 296 301 306 314 315 318 322 327 330 326 328 334 337 337 337 337 336
210 218 226 229 233 236 233 229 230 233 239 242 247 246 246 247 247 242 238 249 241 219 219 214 208 203 207 214 222 231 250 260 252 253 264 278 287 294 298 305 313 319 320 323 325 325 326 331 333 333 334 335 334 334
210 214 221 222 223 221 216 213 223 232 238 241 244 243 243 242 246 245 247 247 210 218 207 208 199 198 208 214 221 233 242 247 244 250 263 276 285 291 297 309 317 319 320 319 320 325 330 331 329 332 333 333 333 332